Temp
18 15 15 18 18 20 20 19 19 20 22 20 21 22 20 20 19 15 14 13 13 12 11 10 10 10 10 9 9 8 9 8 9 9 10 9 8 8 7 6 6 6 6 6
17 15 18 19 19 18 19 19 19 19 22 21 19 19 20 20 20 16 15 13 12 12 11 9 9 10 10 9 9 8 8 7 7 7 7 7 7 6 6 5 4 4 4 4
16 17 19 18 18 19 19 19 19 20 22 22 19 18 20 21 21 17 16 14 13 11 10 9 8 9 9 9 8 7 7 6 6 6 7 7 7 5 5 4 3 2 3 3
16 18 18 18 18 19 18 21 21 21 20 18 20 18 19 19 20 17 15 13 13 12 10 9 8 7 9 8 8 7 7 6 5 5 5 4 4 3 2 2 2 2 2 1
16 18 18 17 18 20 19 21 20 21 19 19 19 17 17 19 18 16 14 14 13 11 9 8 7 8 8 8 7 6 6 5 4 4 4 3 3 2 2 2 1 1 1 1
17 19 19 19 20 20 21 20 18 17 16 15 18 19 21 17 21 16 15 13 12 10 8 8 7 8 8 8 6 6 6 4 4 3 3 2 2 1 1 1 1 0 0 1
17 18 19 20 19 19 20 18 14 14 13 17 19 18 21 20 21 18 15 13 10 9 8 7 7 6 7 7 6 5 5 3 3 2 2 2 1 1 1 0 -0 -0 -0 -0
15 15 18 20 19 19 19 20 17 16 15 18 19 16 19 19 20 18 16 14 10 8 8 7 7 6 6 6 5 4 4 3 2 2 2 1 1 1 0 0 -0 -0 -0 -0
15 16 19 21 21 21 18 18 20 17 16 12 15 17 18 16 16 16 14 11 9 8 7 7 6 5 5 5 4 3 3 2 2 2 1 1 1 1 0 -0 -0 -0 -0 -0
17 17 18 20 20 20 19 19 17 13 16 16 17 17 15 15 13 13 12 10 8 8 7 7 5 4 4 4 3 3 3 2 2 2 1 1 1 0 0 0 0 -0 -1 -1
17 17 16 18 18 19 18 19 18 18 16 17 17 14 14 15 14 13 12 10 8 7 7 6 5 4 4 3 3 3 2 2 2 2 2 2 1 0 0 -0 -0 -1 -1 -2
17 16 15 16 18 18 18 19 18 15 15 14 15 16 16 15 15 14 12 10 8 8 7 6 5 3 2 3 3 2 2 2 2 2 2 1 1 0 -0 -0 -1 -1 -2 -3
10 13 14 15 16 18 17 18 19 18 14 15 15 16 16 16 15 15 12 10 8 8 7 6 5 3 2 2 2 2 2 2 2 2 2 1 0 -0 -1 -1 -1 -2 -3 -3
9 11 12 14 14 14 16 18 19 18 15 16 15 16 15 15 14 12 11 9 9 8 8 6 5 4 3 2 2 2 2 3 2 1 1 0 -1 -1 -2 -2 -2 -3 -4 -4
7 10 9 9 9 11 13 14 15 16 15 14 16 15 15 14 13 12 11 10 9 9 9 8 6 5 3 2 2 3 3 2 2 1 -0 -1 -2 -2 -2 -3 -4 -4 -5 -6
8 9 8 9 8 9 9 9 11 10 11 11 12 12 14 15 14 13 12 11 10 10 9 9 7 5 3 3 2 2 3 2 2 0 -1 -2 -2 -3 -4 -4 -5 -5 -6 -6
8 8 9 9 9 9 9 11 12 12 12 11 10 13 15 15 14 14 13 13 12 11 10 10 7 5 4 3 2 2 2 1 0 -1 -2 -2 -3 -4 -4 -5 -6 -6 -7 -7
8 8 8 9 9 8 12 13 13 13 13 14 15 15 14 15 14 13 13 13 13 13 11 10 6 5 3 2 2 2 1 0 -1 -2 -3 -3 -4 -5 -5 -6 -6 -7 -7 -8
9 8 7 8 9 11 12 14 11 10 11 13 13 14 14 14 13 13 8 10 11 11 9 6 5 4 2 2 1 0 -1 -1 -2 -3 -4 -4 -4 -5 -5 -6 -7 -7 -8 -8
9 8 7 8 7 8 10 12 13 12 8 12 12 12 13 11 9 10 4 5 5 5 5 4 3 2 2 1 1 -0 -2 -3 -3 -3 -4 -4 -5 -5 -5 -6 -7 -7 -8 -9
6 5 8 7 8 8 10 12 13 10 10 12 13 12 12 9 6 4 2 1 2 3 2 2 2 1 1 0 -0 -2 -3 -3 -3 -4 -5 -5 -5 -5 -5 -6 -6 -7 -8 -9
8 6 6 7 7 6 11 13 12 9 11 12 10 7 4 3 2 1 1 1 1 1 1 1 0 -0 -0 -1 -1 -3 -3 -3 -4 -4 -5 -5 -5 -5 -5 -5 -6 -7 -9 -9
7 7 6 7 6 8 10 11 11 10 10 11 8 4 3 2 2 1 1 1 1 0 0 0 -0 -1 -1 -2 -1 -3 -4 -4 -4 -5 -5 -5 -5 -5 -6 -5 -6 -7 -8 -10
8 8 5 9 9 9 9 9 9 10 9 9 5 4 3 2 1 1 0 -0 -0 -1 -0 -1 -1 -2 -3 -3 -3 -3 -4 -4 -4 -5 -5 -5 -6 -6 -6 -6 -7 -7 -9 -10
6 8 6 5 7 8 9 9 8 9 7 5 4 3 2 2 1 1 -0 -0 -1 -1 -1 -1 -1 -2 -3 -3 -4 -4 -4 -4 -5 -5 -5 -6 -6 -6 -7 -7 -7 -8 -8 -9
6 6 5 5 7 7 8 8 7 7 6 5 3 2 2 2 1 0 -0 -1 -1 -1 -1 -1 -2 -2 -3 -4 -4 -4 -4 -4 -5 -5 -6 -6 -6 -7 -8 -9 -9 -9 -9 -10
Height
784 800 803 786 787 784 787 790 790 781 767 778 776 771 774 767 773 786 792 794 798 803 807 809 809 809 811 812 814 816 817 818 818 818 818 818 817 816 814 813 811 809 808 806
791 794 775 779 783 787 789 792 789 777 764 773 779 777 769 766 765 773 781 790 795 800 806 809 808 809 810 811 814 816 817 817 817 818 819 820 820 819 818 816 813 812 810 807
785 778 766 778 782 786 782 786 783 782 765 763 777 784 770 760 760 768 776 780 788 792 798 803 804 807 808 809 812 814 815 816 817 818 819 819 819 819 817 816 814 812 810 808
776 768 771 775 779 778 783 766 769 769 778 794 770 792 775 766 762 768 773 780 783 789 796 798 801 805 805 809 812 814 815 816 817 818 818 819 820 820 820 819 816 814 811 809
769 762 766 769 765 766 770 759 764 762 773 774 777 789 776 758 765 769 771 775 779 785 789 793 798 800 803 808 811 813 815 816 817 817 817 819 820 822 821 819 817 815 813 810
760 751 756 758 752 756 752 762 768 773 779 793 776 777 744 762 746 759 767 771 776 783 788 793 797 800 802 807 810 812 814 816 818 819 820 821 822 822 819 819 818 816 814 812
763 751 747 749 758 753 754 765 797 801 804 774 760 773 729 739 732 738 753 764 772 779 785 790 794 798 802 806 810 813 814 817 819 821 822 822 821 819 819 820 820 817 816 813
768 765 746 736 746 749 748 749 769 781 786 765 759 766 736 729 723 727 739 751 770 779 782 786 791 797 800 806 810 813 815 817 820 823 824 823 820 820 821 821 821 818 819 816
761 750 726 722 723 733 745 748 736 759 766 787 765 745 732 733 730 730 745 759 769 775 779 785 792 796 801 806 809 812 816 819 821 824 824 824 823 822 822 822 820 818 821 817
739 747 726 718 719 720 730 732 755 768 764 764 748 748 750 742 743 743 750 758 767 775 780 784 790 795 800 805 809 812 816 819 823 824 823 826 825 824 822 822 820 818 824 819
734 743 735 725 718 718 729 730 733 734 743 748 752 754 733 729 734 739 745 754 761 770 776 782 789 794 799 804 809 811 815 820 824 823 823 825 825 825 824 821 820 819 825 820
722 734 738 726 713 712 716 718 724 739 746 745 747 734 718 721 724 729 738 752 761 768 775 781 789 795 797 800 806 809 814 818 821 822 823 824 824 825 825 822 821 819 825 822
755 737 738 726 722 709 714 708 707 713 730 733 743 730 721 720 725 731 742 754 763 768 774 781 788 794 795 797 803 807 812 816 819 822 823 824 824 825 825 824 824 821 825 824
758 746 737 727 728 726 713 701 699 706 723 722 729 726 730 729 731 738 743 753 760 765 769 777 784 789 793 795 801 806 809 813 817 820 822 825 825 825 825 825 824 824 827 826
765 752 751 749 751 738 725 716 712 710 718 723 716 727 729 733 736 738 742 750 756 763 769 771 776 785 789 794 800 806 809 811 813 818 822 825 825 825 826 827 825 827 828 827
760 754 758 752 753 755 748 746 738 740 737 735 732 734 724 723 730 733 741 749 754 757 753 760 773 778 782 788 797 804 805 811 812 816 822 826 824 825 826 827 827 830 830 828
754 755 759 745 750 753 751 737 733 727 730 732 738 724 717 718 720 722 727 729 734 734 747 754 759 769 775 784 792 798 801 808 813 818 823 825 824 825 826 827 831 833 831 831
752 754 754 747 743 753 722 714 716 716 716 714 711 710 712 711 710 712 713 715 716 719 724 740 755 767 774 777 787 795 799 805 810 818 822 823 824 825 827 830 834 834 834 833
741 747 756 752 745 727 716 710 721 722 719 712 708 709 706 708 711 714 720 713 709 713 722 736 745 756 768 776 782 792 797 803 809 817 822 822 822 824 827 832 835 835 835 836
739 742 753 746 753 746 723 713 712 713 733 706 708 708 703 711 723 720 724 721 715 720 725 735 747 760 768 774 781 790 795 801 810 816 820 820 821 824 828 833 836 836 837 837
747 753 742 750 745 738 716 710 708 726 729 710 703 706 706 718 723 727 729 729 728 726 731 740 749 758 766 772 780 787 792 802 809 816 818 818 821 825 830 834 835 837 839 839
732 746 751 749 749 755 708 704 707 717 705 703 709 715 720 726 729 732 735 737 736 736 741 748 753 760 768 775 780 784 793 802 810 813 814 818 822 827 831 833 835 837 839 841
734 730 738 735 735 713 706 703 702 705 705 704 709 717 722 727 731 735 738 739 741 746 750 753 755 762 772 777 778 785 795 802 808 810 814 818 824 829 831 833 835 838 840 842
717 717 733 722 716 710 708 705 703 701 703 704 709 714 720 725 733 736 740 744 748 749 751 756 759 765 771 776 781 787 796 802 806 809 814 819 825 828 831 834 836 838 840 842
720 717 724 728 717 713 707 705 705 701 704 707 713 715 719 726 733 736 740 743 748 752 755 757 760 766 772 777 782 789 795 800 805 810 814 820 825 828 831 834 836 838 840 841
715 719 727 725 709 710 708 704 705 701 702 707 711 719 723 726 730 736 739 744 748 752 755 759 763 767 772 778 784 790 794 798 803 809 814 819 823 828 831 834 837 841 841 843
Wind_Speed
3 3 8 19 11 2 4 4 5 5 5 6 16 13 8 10 7 16 13 13 12 11 12 21 24 22 20 16 13 12 12 12 10 11 10 17 17 16 20 19 18 17 18 19
3 12 18 9 8 8 11 11 13 10 9 7 6 10 12 10 9 21 20 15 15 12 11 15 21 18 15 15 12 11 12 13 13 11 9 8 5 11 15 14 16 16 17 18
12 6 13 13 13 12 14 14 13 10 3 3 6 6 7 6 5 11 16 16 15 19 16 12 15 19 18 15 12 12 11 12 14 13 9 7 6 8 14 16 15 17 16 19
11 15 16 9 15 13 17 13 13 15 8 5 6 7 7 9 6 12 17 18 19 18 14 12 17 20 19 16 13 13 10 9 10 10 13 15 16 13 14 14 15 16 16 20
8 6 13 20 24 16 13 9 9 7 5 1 5 3 6 8 7 9 16 18 17 16 17 14 16 23 21 18 16 14 10 9 9 10 12 13 13 11 12 13 15 17 16 20
10 6 5 7 12 18 8 4 5 4 3 6 6 6 14 8 14 10 13 15 17 16 13 13 20 26 23 18 16 15 11 10 8 10 11 11 11 11 14 14 15 15 16 18
13 22 20 11 9 6 10 6 1 2 1 10 10 7 23 5 10 16 23 19 17 17 15 14 14 18 23 20 18 15 10 12 9 9 10 10 11 13 14 12 12 14 14 18
9 9 16 15 21 10 13 15 7 8 6 9 10 9 10 5 13 15 24 21 17 15 14 14 16 20 23 21 18 16 12 13 10 9 9 10 11 12 12 12 12 13 13 16
7 11 4 13 16 19 10 15 12 3 3 2 5 6 5 6 3 17 19 18 17 15 13 14 17 20 23 22 19 17 15 13 10 8 8 9 9 10 10 11 13 14 13 10
5 9 6 5 11 13 11 6 4 1 14 17 7 6 6 3 8 12 17 17 15 13 12 12 16 21 23 21 19 17 14 13 10 9 9 7 9 9 10 12 14 16 13 12
23 15 9 3 12 19 9 14 6 6 8 16 15 9 8 13 14 17 15 13 16 15 14 13 17 22 25 22 19 17 15 13 10 9 10 8 10 10 11 10 10 14 11 11
18 8 18 30 9 8 5 18 12 7 12 7 6 13 6 9 14 16 16 15 13 13 14 13 19 21 23 25 21 20 17 14 13 11 9 11 13 11 12 13 14 14 11 13
9 4 16 17 12 19 15 17 22 14 3 12 10 11 4 7 8 6 10 12 11 13 13 11 16 19 21 24 24 21 18 16 15 11 15 14 14 14 14 13 12 13 10 13
8 4 5 16 2 5 6 21 22 20 12 14 9 4 5 6 9 6 11 13 14 15 15 13 12 18 22 23 26 23 20 16 16 18 16 15 15 15 13 12 12 12 10 13
3 2 5 8 14 12 11 11 5 4 2 8 17 6 3 6 7 8 12 14 15 15 14 16 16 16 22 23 22 24 19 23 22 19 18 17 16 14 12 11 11 10 11 14
4 2 4 3 3 7 7 12 13 7 4 5 2 8 4 9 10 12 12 11 11 12 19 20 16 21 25 26 25 26 23 21 21 22 19 17 15 14 12 12 13 12 13 15
1 3 3 3 4 4 5 12 11 11 12 7 6 11 15 8 9 12 17 18 19 20 17 20 19 24 27 27 28 25 26 26 24 22 19 16 15 15 14 15 16 17 18 19
7 6 4 3 5 3 11 10 8 8 13 10 9 10 11 12 9 9 7 16 18 21 22 19 20 26 28 32 29 30 31 29 26 21 18 17 16 17 18 18 18 19 19 21
9 5 2 1 3 4 10 6 6 4 5 5 6 7 5 2 3 3 4 6 9 13 15 21 32 36 33 31 33 33 30 29 26 22 19 18 18 19 19 19 19 19 20 20
6 3 3 2 1 4 4 5 8 6 4 5 2 5 1 4 3 5 6 6 7 11 24 31 33 32 32 31 36 33 27 27 25 23 21 19 18 20 20 19 20 19 19 19
3 1 10 4 4 7 5 7 4 3 5 4 2 1 1 3 2 3 4 7 7 17 26 30 31 32 30 36 36 29 28 26 23 22 21 20 19 20 19 19 19 20 19 18
5 5 4 5 4 6 5 2 2 6 3 3 4 5 4 5 6 6 6 8 10 14 24 26 28 26 26 32 33 28 27 26 26 24 23 22 20 19 17 17 16 21 18 17
2 5 4 6 5 4 4 3 2 3 6 4 6 4 8 9 5 7 7 9 9 16 19 22 27 25 24 26 31 28 29 30 28 25 25 23 19 18 15 17 21 22 18 17
1 0 3 1 2 4 7 5 2 3 6 3 4 9 7 7 9 9 8 9 9 15 18 22 24 22 21 23 25 30 31 31 29 28 25 23 21 20 20 20 21 20 17 16
4 4 5 4 6 4 5 3 4 2 4 8 7 7 10 12 9 10 9 9 12 13 16 20 21 21 22 25 25 29 31 29 26 25 23 24 22 20 18 16 15 15 12 12
5 6 4 5 6 4 6 5 7 7 8 10 9 8 8 8 10 7 9 13 15 15 17 17 18 21 23 24 26 27 29 28 27 23 23 26 24 22 23 22 19 14 15 13
Wind_Direction
192 144 208 215 222 250 219 239 236 240 233 172 209 211 212 203 128 156 159 156 152 143 149 131 125 117 110 94 79 60 48 41 43 52 68 79 88 74 64 60 53 40 37 34
251 226 228 229 236 230 249 255 259 283 267 172 199 225 207 207 201 171 164 164 158 149 146 134 127 119 106 99 89 82 57 48 49 53 63 78 107 66 54 49 43 33 22 23
210 227 208 215 234 240 237 233 249 239 272 267 123 282 267 213 189 160 175 164 161 161 153 149 134 131 122 110 107 106 74 59 52 50 65 88 90 40 28 28 33 31 18 13
244 237 250 235 236 225 242 231 244 251 229 214 177 249 242 220 212 162 172 169 168 165 155 150 142 136 122 115 117 114 93 71 55 49 59 63 58 55 40 33 33 35 27 21
227 207 214 227 231 226 246 221 229 207 189 229 193 225 240 198 213 195 177 176 172 162 156 153 149 141 132 133 129 123 109 81 62 60 63 65 66 56 45 40 39 33 32 26
244 269 212 222 234 224 256 194 47 46 112 247 167 190 241 201 205 181 178 166 161 156 151 146 144 141 136 133 132 129 115 90 72 67 71 75 78 60 52 44 40 37 34 27
257 253 255 260 288 252 206 139 239 275 238 241 171 208 242 237 223 181 174 172 167 158 155 151 149 138 141 137 139 129 121 103 95 82 80 78 72 63 58 53 43 42 40 41
204 269 213 220 219 222 220 203 204 202 201 241 180 239 246 262 235 180 177 167 152 159 158 153 150 147 143 141 140 137 125 116 107 90 84 79 73 69 69 58 51 54 52 43
202 247 212 231 206 196 215 209 197 153 19 73 208 268 301 21 43 150 156 158 164 162 157 156 145 144 146 144 136 138 129 123 123 119 108 91 86 81 81 75 66 64 52 41
214 276 213 222 203 231 206 170 145 281 225 240 227 229 226 180 145 145 157 169 163 155 154 149 142 141 149 150 140 138 136 137 142 140 120 118 101 96 91 87 71 66 47 72
229 244 259 16 202 214 210 213 224 186 200 229 250 252 209 191 177 175 182 167 158 156 158 146 143 149 153 151 149 143 143 147 154 144 135 135 124 102 94 85 83 76 72 55
229 218 247 240 265 287 266 236 204 198 223 221 212 246 308 169 177 178 173 162 162 158 154 145 146 150 150 152 155 154 156 164 165 153 150 134 128 116 107 94 90 87 77 58
342 250 239 261 265 253 243 244 225 218 100 208 205 238 199 184 159 166 153 153 156 151 153 147 153 161 159 158 161 161 163 168 163 154 137 126 121 116 111 104 97 91 77 57
351 282 249 240 250 291 224 240 223 212 215 222 224 161 69 122 128 103 144 155 162 170 172 160 167 170 167 161 163 165 168 171 160 144 135 130 124 123 117 108 98 93 80 61
108 343 358 10 8 358 346 336 17 224 50 218 235 197 92 133 154 155 149 151 162 173 183 181 177 176 162 158 161 167 159 154 152 143 138 133 130 127 120 105 93 100 90 72
199 56 357 319 88 348 324 325 330 284 263 246 257 289 199 243 182 191 162 169 185 219 190 189 184 168 162 159 163 169 161 162 155 147 145 142 136 130 118 104 98 103 99 87
148 141 207 275 144 90 278 237 250 231 227 223 258 253 261 240 232 191 182 188 211 203 199 195 179 172 162 158 161 165 164 160 154 151 153 149 142 131 118 112 109 102 97 93
190 183 176 237 164 181 237 243 274 270 264 256 247 236 243 241 225 222 198 205 212 204 194 179 161 161 158 157 161 161 156 153 152 156 157 150 143 131 125 119 116 108 99 95
197 169 195 204 201 293 283 223 161 128 284 280 218 223 236 266 91 253 7 302 209 185 172 162 160 158 156 153 152 149 146 150 152 152 158 153 146 140 138 133 128 119 106 96
186 162 150 128 152 236 189 143 146 164 293 322 233 278 121 87 115 249 355 336 97 109 141 147 148 146 147 148 152 149 141 143 148 159 161 155 148 145 144 148 143 126 112 103
128 42 212 210 234 276 268 269 167 142 241 296 355 104 154 192 185 100 58 52 73 123 133 138 141 147 147 151 154 143 143 153 162 161 156 147 144 146 148 147 154 140 121 106
160 151 181 180 198 268 217 304 118 214 244 206 161 161 113 114 99 89 99 103 107 120 132 139 136 136 143 151 150 138 147 160 160 154 148 145 146 149 153 150 151 154 132 114
213 173 186 180 213 257 299 252 308 187 222 217 143 138 143 138 146 137 123 118 123 131 134 137 134 131 141 148 150 141 153 159 157 151 149 145 148 152 153 159 147 147 141 125
20 338 172 110 244 240 285 280 295 269 234 69 108 144 141 139 146 138 137 136 135 139 140 141 138 140 138 144 148 152 154 159 155 151 151 153 157 153 147 146 152 152 145 135
187 152 181 270 274 287 256 209 198 149 104 113 124 157 157 152 159 154 149 146 145 151 145 148 148 147 146 149 151 158 163 163 152 151 151 153 155 153 149 148 151 149 147 148
176 184 164 228 227 191 244 202 220 183 163 168 140 135 148 155 154 155 150 154 154 152 151 151 151 149 150 153 155 160 167 166 157 154 152 159 156 149 142 132 120 119 122 126